User: anonymous   Login
Location: Space Photons Observatory
(33.2428°N, 111.5467°W)
Time: 03:33:01
(UTC-07:00)
Language:

RESURS DK-1 - Orbit

View from above orbital plane
View from above orbital plane
View from above satellite
View from above satellite

Ground track
Ground track

The orbit data is extracted from the following two-line orbital elements,

1 29228U 06021A   15245.22541603  .00000376  00000-0  36464-4 0  9995
2 29228  69.9405 321.2713 0007719 264.0140  96.0131 15.01583014509910
Epoch (UTC): 02 September 2015 05:24:35
Eccentricity: 0.0007719
inclination: 69.9405°
perigee height: 556 km
apogee height: 567 km
right ascension of ascending node: 321.2713°
argument of perigee: 264.0140°
revolutions per day: 15.01583014
mean anomaly at epoch: 96.0131°
orbit number at epoch: 50991

The dashed part of the orbit path shows where the satellite is in the earth's shadow,  

DLR